Location: Gu?uchowice
(50.4411°N, 19.2694°E)
Time: 05:15:00
(UTC+00:00)

Daily predictions for brighter satellites

Satellite Brightness Start Highest point End
(mag) Time Altitude Azimuth Time Altitude Azimuth Time Altitude Azimuth
COSMOS 2455 4.5 02:23:49 28° ESE 02:23:49 28° ESE 02:26:36 10° SE
ATLAS 3B R/B 4.2 02:27:10 30° N 02:27:10 30° N 02:33:34 10° ENE
Cosmos 2360 Rocket 4.3 02:27:41 20° NNE 02:27:55 20° NE 02:31:59 10° E
Cosmos 2333 Rocket 4.0 02:28:57 26° NE 02:28:57 26° NE 02:33:43 10° E
ACS3 Solar Sail 4.2 02:28:28 10° N 02:28:40 11° N 02:28:40 11° N
Cosmos 2219 Rocket 4.3 02:44:06 17° NNE 02:45:18 18° NNE 02:49:07 10° ENE
Cosmos 2322 Rocket 3.8 02:50:37 26° NNE 02:51:42 28° NE 02:56:31 10° E
USA 59 Rocket 2.4 03:08:36 17° SE 03:08:36 17° SE 03:09:51 10° SE
Cosmos 1937 Rocket 4.3 03:09:18 47° ESE 03:09:18 47° ESE 03:13:07 10° SE
Cosmos 1833 Rocket 4.5 03:13:28 20° N 03:13:28 20° N 03:15:24 10° NNE
NOSS 3-1 (A) 4.2 03:09:52 48° N 03:11:38 59° NE 03:19:58 10° ESE
Aureole 1 Rocket 4.2 03:13:02 71° SSW 03:13:02 71° SSW 03:19:56 10° SSE
COSMOS 2406 4.2 03:13:03 16° S 03:17:16 44° ESE 03:22:39 10° NE
SL-16 R/B 2.6 03:19:10 52° NNE 03:20:05 58° NE 03:25:39 10° SE
Cosmos 2082 Rocket 2.1 03:23:08 80° ENE 03:23:08 80° ENE 03:28:30 10° NNE
SKYMED 2 4.5 03:19:27 10° SE 03:23:02 47° E 03:23:02 47° E
USA 234 3.5 03:21:33 10° ENE 03:27:52 52° N 03:28:36 50° NNW
SeaSat 1 4.1 03:25:50 10° NNE 03:27:52 24° N 03:27:52 24° N
CZ-2C R/B 4.3 03:32:36 10° N 03:34:03 19° N 03:34:03 19° N
Helios 1A Rocket 4.0 03:40:03 10° SE 03:42:22 34° ESE 03:42:22 34° ESE
Cosmos 2278 3.8 03:42:22 44° NNW 03:44:10 74° ENE 03:49:49 10° SE
FengYun 1-2 T 4.2 03:42:22 10° NNE 03:48:05 89° W 03:53:44 10° SSW
Cosmos 2026 Rocket 4.4 03:43:42 10° S 03:49:38 61° E 03:55:39 10° NNE
Celestis-02/Orion 38 4.4 03:45:36 10° NNE 03:50:41 78° WNW 03:51:36 60° SW
SL-4 R/B 2.8 03:54:50 38° E 03:54:50 38° E 03:56:55 10° E
NOSS 3-1 (C) 4.0 03:52:30 45° WNW 03:54:41 60° SW 04:03:16 10° SSE
Cosmos 1726 Rocket 4.0 04:01:10 45° SSW 04:01:10 45° SSW 04:04:11 10° S
Cosmos 841 Rocket 3.3 04:00:24 37° SW 04:02:29 73° WNW 04:07:46 10° NNE
SJ-11-01 4.1 04:00:16 10° N 04:04:56 65° WNW 04:07:06 31° SW
COSMOS 2455 3.6 04:07:00 32° SW 04:07:00 32° SW 04:11:35 10° S
Cosmos 2360 Rocket 2.3 04:09:26 24° NNW 04:12:55 73° ENE 04:18:32 10° SE
Cosmos 2333 Rocket 2.1 04:11:00 31° NW 04:13:54 81° WSW 04:19:39 10° SSE
Cosmos 489 Rocket 4.4 04:09:56 10° SW 04:16:11 67° WNW 04:22:27 10° NNE
Cosmos 1092 Rocket 4.0 04:10:05 10° S 04:16:22 83° E 04:22:37 10° N
Cosmos 1428 Rocket 4.4 04:12:20 10° SSW 04:18:29 62° WNW 04:24:45 10° N
Nadezhda 4 Rocket 4.1 04:13:05 10° SSW 04:19:12 52° WNW 04:25:20 10° N
ATLAS 3B R/B 3.8 04:14:24 20° NW 04:19:36 43° NNE 04:26:50 10° E
Meteor 2-2 Rocket 4.2 04:14:15 10° NNW 04:19:58 86° W 04:25:46 10° S
Cosmos 2237 Rocket 4.4 04:18:59 10° N 04:22:34 17° NNE 04:26:07 10° ENE
Cosmos 1892 Rocket 3.4 04:19:35 10° SSW 04:23:55 64° WNW 04:28:20 10° N
NOSS 3-4 (A) 4.4 04:23:03 24° NW 04:24:30 27° NNW 04:29:56 10° NE
NOSS 3-4 (C) 4.4 04:23:12 25° NW 04:24:40 27° NNW 04:30:05 10° NE
Cosmos-2242 2.8 04:24:04 23° NNW 04:26:37 76° W 04:30:48 10° S
Cosmos 220 Rocket 4.2 04:29:35 41° NW 04:29:35 41° NW 04:33:17 10° NNE
Cosmos 2219 Rocket 2.6 04:25:49 16° NNW 04:30:26 63° ENE 04:36:01 10° SE
COSMO-SKYMED 1 2.6 04:27:24 10° S 04:31:24 50° W 04:32:40 36° NW
IRS-1D 3.5 04:27:47 10° N 04:32:40 55° WNW 04:37:36 10° SW
Cosmos 2195 Rocket 4.5 04:27:28 10° SSW 04:33:40 60° WNW 04:39:57 10° N
Meteor 2-20 4.5 04:29:00 10° NNW 04:34:57 55° W 04:40:50 10° SSW
Cosmos 2322 Rocket 2.1 04:32:25 21° NW 04:36:17 72° WSW 04:41:55 10° SSE
Meteor 2-6 Rocket 4.4 04:36:43 10° NNW 04:42:42 84° ENE 04:48:39 10° SSE
ATLAS 2AS CENTAUR R/B 4.2 04:41:02 10° S 04:47:27 39° ESE 04:53:44 10° NE
Orbus 7S? 2.3 04:48:21 44° WNW 04:49:02 77° SW 04:51:48 10° SE
Cosmos 1812 Rocket 4.1 04:45:32 10° N 04:49:48 57° ENE 04:54:04 10° SSE
IGS 5A 3.3 04:47:48 10° NNE 04:51:50 87° ESE 04:55:50 10° SSW
BREEZE M DEB (TANK) 4.1 04:50:46 10° SSW 04:52:54 25° SE 04:56:36 10° E
Cosmos 2333 4.2 04:49:17 15° NNW 04:54:07 73° WSW 04:59:46 10° SSE
Meteor 1-26 Rocket 4.5 04:49:38 10° NNW 04:54:54 46° W 05:00:17 10° SSW
Cosmos 1484 Rocket 2.3 04:51:38 10° N 04:55:02 69° WNW 04:58:24 10° SSW
Meteor 2-3 Rocket 4.1 04:49:49 10° SW 04:55:11 40° WNW 05:00:32 10° N
BREEZE-M DEB (TANK) 2.6 04:55:04 29° SW 04:55:19 30° SSW 04:57:18 10° SE
SL-08 ROCKET BODY 4.4 04:49:38 10° S 04:55:28 82° E 05:01:21 10° N
Meteor 2-20 Rocket 4.4 04:51:09 10° NNW 04:56:43 51° W 05:02:11 10° SSW
Cosmos 2058 Rocket 3.6 04:54:41 17° NNW 04:57:33 36° W 05:01:34 10° SSW
Cosmos 1602 Rocket 4.4 04:53:30 10° S 04:57:50 55° E 05:02:11 10° NNE
Cosmos 1437 Rocket 3.3 04:55:32 10° N 04:58:56 50° ENE 05:02:18 10° SSE
ARIANE 5 R/B 3.9 04:55:51 10° NNE 05:00:51 44° E 05:05:49 10° S
COSMOS 2406 3.6 04:56:20 10° WSW 05:01:39 39° NW 05:06:58 10° NNE
NOSS 3-1 (A) 4.4 04:57:15 18° NW 05:02:39 50° WSW 05:11:04 10° SSE
SL-16 R/B 3.1 05:01:03 19° WNW 05:03:49 28° WSW 05:08:32 10° SSW
CZ-4 R/B 4.4 05:01:55 10° N 05:06:00 31° WNW 05:10:03 10° SW
SeaSat 1 4.2 05:04:30 10° N 05:06:55 14° NNW 05:07:30 13° NW
Cosmos 1743 2.3 05:04:13 10° S 05:07:27 80° ESE 05:10:44 10° NNE
COSMOS 2428 3.6 05:01:55 10° NNW 05:07:28 48° NE 05:12:57 10° SE
Cosmos 2082 Rocket 3.2 05:05:01 18° WNW 05:07:37 24° NW 05:12:10 10° NNE
USA 234 3.6 05:03:59 10° E 05:10:22 57° NNE 05:15:57 14° WNW
ATLAS 5 CENTAUR R/B 3.2 05:10:38 11° NNW 05:11:43 12° N 05:13:06 10° NNE
IRIDIUM 104 4.3 05:06:38 10° SSW 05:11:49 65° W 05:17:02 10° N
Okean 1 4.1 05:11:24 19° NW 05:12:50 24° W 05:15:45 10° SW
BREEZE-M DEB (TANK) 2.4 05:12:02 17° W 05:13:58 76° S 05:16:13 10° E
CZ-2C R/B 4.5 05:13:03 10° NNW 05:13:16 10° NW 05:13:16 10° NW
Helios 1A Rocket 4.2 05:13:57 10° SW 05:15:55 15° W 05:15:55 15° W
Cosmos 1814 Rocket 4.0 05:12:31 10° SW 05:17:44 66° WNW 05:23:02 10° NNE
MOS 1 Rocket 4.2 05:14:34 10° NNE 05:19:55 61° E 05:25:09 10° S
CBERS-1 4.0 05:15:26 10° N 05:20:31 67° WNW 05:25:33 10° SSW
IRIDIUM 114 4.4 05:15:53 10° SSW 05:21:00 54° W 05:26:08 10° N
Meteor 1-27 Rocket 4.4 05:15:46 10° N 05:21:35 61° ENE 05:27:16 10° SSE
Cosmos 2285 Rocket 4.3 05:17:44 10° NNW 05:23:47 47° WSW 05:29:51 10° S
BREEZE-M DEB (TANK) 3.2 05:23:26 14° W 05:25:48 78° S 05:32:29 10° E
USA 229 4.2 05:20:07 10° NW 05:27:23 72° NE 05:35:27 10° SE
USA 229 DEB 4.2 05:20:13 10° NW 05:27:28 72° NE 05:35:32 10° SE
BREEZE-M DEB (TANK) 4.2 05:24:40 10° WSW 05:27:49 35° S 05:35:25 10° SE
SAR-Lupe-4 3.6 05:27:07 10° NNE 05:30:42 83° ESE 05:34:14 10° SSW
SL-4 R/B 2.5 05:28:33 13° W 05:31:07 33° SSW 05:34:00 10° SE
Cosmos 1825 Rocket 4.2 05:27:08 10° S 05:31:28 61° E 05:35:50 10° NNE
Cosmos 2151 2.8 05:28:04 10° SSW 05:32:08 72° WNW 05:36:15 10° N
CORIOLIS 4.1 05:27:05 10° NNE 05:32:29 80° WNW 05:37:53 10° SSW
Cosmos 1758 Rocket 3.9 05:29:49 10° SSW 05:34:02 44° WNW 05:38:16 10° N
CZ-2D R/B 2.6 05:31:10 10° N 05:34:21 75° WNW 05:37:30 10° SSW
Cosmos 2221 2.7 05:31:19 10° NNW 05:35:20 47° W 05:39:18 10° SSW
Meteor 1-20 Rocket 4.3 05:29:41 10° S 05:35:21 83° E 05:40:55 10° NNE
Thor Agena Rocket 3.5 05:33:39 10° N 05:38:41 67° WNW 05:43:39 10° SSW
Cosmos 2315 Rocket 4.1 05:32:44 10° N 05:39:10 89° WSW 05:45:29 10° S
SAR-Lupe-1 4.1 05:36:38 10° NNE 05:40:16 89° WNW 05:43:53 10° SSW
Cosmos 1238 Rocket 1.9 05:39:28 10° N 05:42:20 88° W 05:45:11 10° S
Cosmos 405 Rocket 3.4 05:41:11 10° SW 05:43:53 24° WNW 05:46:37 10° NNW
SL-16 R/B 4.1 05:40:33 10° N 05:44:34 19° NE 05:48:36 10° E
Cosmos 1707 2.5 05:42:57 10° NNW 05:45:59 44° W 05:48:58 10° SSW
Meteor 2-4 Rocket 4.1 05:41:22 10° N 05:46:45 64° ENE 05:52:12 10° SSE
YAOGAN 1 3.9 05:45:44 10° NNE 05:49:49 44° E 05:53:54 10° S
Cosmos 158 Rocket 4.3 05:44:52 10° SW 05:49:57 45° WNW 05:54:59 10° NNE
Cosmos 1655 Rocket 4.3 05:45:30 10° S 05:51:49 75° E 05:58:08 10° NNE
KORONAS-FOTON 4.1 05:50:24 10° NNW 05:53:33 37° W 05:56:41 10° SSW
Cosmos 1980 4.5 05:49:42 10° NNW 05:55:16 51° NE 06:00:47 10° SE
IRS-1C 4.1 05:50:30 10° NNE 05:55:50 74° WNW 06:01:08 10° SSW
S3M 4.1 05:50:05 10° NNW 05:56:06 54° W 06:02:02 10° SSW
Cosmos 2360 Rocket 3.5 05:52:09 10° NW 05:56:18 22° W 06:00:27 10° SSW
